RH
85 83 83 86 89 92 93 91 88 87 86 83 83 88 89 83 73 59 55 56 57 71 82 81 75 79 83 84 90 88 83 83 78 68 79 87 94 94 92 88 72 69 78
91 91 92 94 88 91 90 85 84 83 82 77 79 66 44 37 36 40 43 42 41 39 41 47 68 73 74 86 88 83 91 96 91 88 84 81 81 84 92 98 96 92 81
93 96 96 94 90 89 89 86 83 82 78 44 35 35 34 33 34 35 36 37 39 37 48 64 71 75 73 72 73 72 77 78 81 79 69 67 93 86 83 84 89 98 99
94 94 95 91 88 86 84 79 43 35 35 33 29 26 24 23 22 22 23 30 48 58 60 57 59 63 58 51 47 50 56 59 56 62 67 73 82 84 90 93 87 80 85
95 96 93 91 75 46 35 36 34 32 31 30 28 26 24 21 22 36 48 54 43 37 29 23 26 32 36 35 32 35 37 42 46 49 56 62 71 76 83 89 94 90 90
91 86 49 36 37 36 35 34 32 30 27 25 24 23 22 19 26 18 22 26 23 22 16 18 31 24 19 12 9 14 20 26 37 49 53 58 65 70 76 88 93 94 93
39 36 37 37 36 36 36 35 32 28 24 22 21 21 18 18 18 28 22 17 11 9 15 28 16 7 5 4 4 4 5 9 23 45 63 86 90 90 88 86 84 82 81
38 39 39 40 42 43 40 34 29 24 19 14 13 19 19 19 29 20 20 13 13 12 12 13 7 6 6 6 7 9 7 10 21 53 78 86 87 85 84 84 86 84 86
41 42 44 46 46 42 34 29 23 18 14 12 13 24 24 34 23 22 14 18 13 9 7 7 6 6 8 10 20 16 19 18 45 74 77 77 82 84 81 80 79 76 79
44 47 48 47 40 33 29 22 15 13 12 13 14 19 24 30 32 36 25 12 16 12 12 12 13 15 15 24 25 29 25 44 57 68 76 76 80 78 77 77 76 75 77
48 50 48 39 30 27 20 15 13 13 14 15 18 20 20 20 22 46 50 33 13 11 11 16 18 18 27 35 43 41 55 62 73 82 76 78 79 76 74 74 74 73 75
50 49 41 30 26 20 16 14 14 14 16 20 20 20 20 23 32 36 34 38 51 38 35 20 19 28 39 47 50 46 64 78 79 77 79 82 86 78 76 74 77 82 77
50 44 34 26 22 16 14 13 14 17 19 20 19 18 19 25 30 27 22 28 48 52 55 57 61 63 60 62 55 61 70 74 75 81 83 79 79 78 76 74 78 78 79
48 39 29 23 18 13 12 15 17 20 21 19 17 17 20 22 24 26 25 41 61 61 68 65 61 68 72 69 71 72 66 71 77 79 77 77 77 77 77 76 72 79 95
46 36 27 20 12 12 15 18 22 21 18 16 16 19 24 26 28 25 22 37 75 85 74 73 78 75 73 72 72 73 75 80 85 84 80 77 77 78 76 76 76 86 93
39 28 19 12 12 15 21 23 20 18 17 18 23 29 31 34 35 28 36 54 71 80 90 73 74 76 78 81 83 80 84 92 81 80 83 82 81 85 93 90 91 96 97
29 18 12 12 15 22 23 20 19 19 22 28 32 37 47 51 45 42 48 63 76 82 92 80 74 77 85 81 84 93 97 95 95 90 85 76 76 82 84 80 88 85 73
17 12 13 17 24 22 19 18 20 22 28 33 42 54 58 58 57 52 59 76 81 81 92 98 81 84 83 73 89 92 98 97 95 84 79 80 82 85 79 77 78 78 77
12 13 20 25 23 20 18 18 20 25 29 47 57 62 64 68 65 63 84 86 86 95 96 92 90 75 81 84 88 100 95 76 78 74 74 78 80 83 84 84 88 95 92
14 22 26 25 22 20 19 18 20 30 45 56 62 65 70 75 72 89 91 92 98 96 96 99 97 99 91 91 96 87 84 81 78 75 89 96 93 87 87 86 89 91 89
24 28 27 23 20 20 18 18 41 60 59 58 66 72 78 76 90 88 91 95 95 96 96 97 98 96 97 90 89 88 89 89 93 97 96 87 91 95 96 95 91 92 95
29 28 24 22 21 20 19 30 64 66 62 72 75 78 73 79 91 92 92 91 92 96 86 97 97 100 94 94 93 91 98 98 99 86 90 97 99 97 87 79 97 100 96
30 26 23 24 22 20 21 32 56 63 72 76 78 75 76 91 87 84 89 90 86 96 97 94 93 93 99 90 98 98 100 100 100 94 100 100 96 100 91 91 99 100 99
29 25 25 25 23 22 25 26 35 63 71 71 74 77 96 87 88 89 95 94 96 76 78 86 93 97 98 97 98 98 98 98 96 96 100 97 84 90 82 84 73 81 100
27 26 27 25 24 23 28 33 87 82 80 78 74 96 96 94 90 94 97 94 96 85 67 85 100 98 95 96 99 96 95 100 98 93 77 100 84 92 90 79 65 61 67
28 29 24 21 24 28 34 50 92 89 90 79 94 89 96 93 92 99 94 98 94 73 98 99 83 68 69 78 100 98 96 98 100 99 80 98 98 98 97 89 80 85 84
Wind_Speed
5 7 7 6 7 7 8 9 10 12 14 17 19 20 19 20 20 19 18 18 20 22 24 24 25 21 20 21 21 23 25 23 23 25 26 28 32 34 35 33 36 39 40
10 10 10 11 8 9 10 13 15 18 19 18 20 19 18 18 19 20 20 20 20 22 22 21 21 21 20 20 21 24 24 22 24 24 27 29 29 30 33 37 38 37 39
9 10 8 6 9 10 13 16 16 19 19 17 18 19 20 21 22 23 24 25 25 22 20 18 17 16 17 18 19 20 19 22 24 26 30 33 32 31 30 31 33 38 42
7 8 7 7 10 12 14 16 14 15 17 20 21 22 22 20 20 20 20 17 14 13 14 18 20 21 20 21 21 22 25 25 27 28 28 30 28 29 29 30 31 32 34
8 7 6 8 9 9 11 13 16 18 21 22 22 21 19 17 14 11 10 9 13 17 19 22 21 19 20 22 24 26 27 28 30 31 31 32 29 29 28 29 28 30 31
6 5 3 4 7 10 13 15 17 18 19 21 21 20 18 11 11 18 13 12 18 20 23 21 17 21 25 28 29 29 29 30 30 28 29 30 31 32 30 30 30 31 33
5 2 3 7 11 14 17 18 17 17 16 19 22 23 18 9 9 5 11 16 23 20 16 17 26 30 29 29 28 28 30 31 31 29 27 25 25 25 26 28 31 31 33
3 1 6 10 14 16 18 18 17 15 15 19 22 19 13 17 4 23 11 28 20 23 26 28 29 31 30 29 28 27 30 31 31 29 25 26 27 28 29 30 31 32 33
1 5 9 13 16 18 17 15 15 16 17 17 18 12 9 7 34 13 34 24 33 29 34 32 33 32 30 31 29 33 29 32 29 27 29 30 30 31 32 33 34 36 36
3 8 12 16 18 17 14 13 14 15 17 18 19 16 14 16 13 20 26 41 34 41 39 38 36 34 36 30 32 32 32 27 32 32 32 33 34 35 35 36 37 38 38
6 10 14 17 17 14 13 13 14 15 17 19 20 23 24 25 24 20 31 34 44 43 42 37 38 39 33 34 32 33 32 34 28 28 33 34 35 36 36 38 39 40 40
7 12 15 16 15 13 13 14 16 17 19 20 21 22 23 23 24 27 36 37 34 38 35 42 39 36 35 32 35 37 32 27 32 37 35 32 33 37 38 39 40 39 40
9 13 14 13 13 13 14 16 18 20 22 24 24 24 23 21 23 28 36 42 35 40 34 31 26 26 29 31 35 32 30 35 34 33 33 38 39 39 39 39 40 40 41
11 13 13 13 13 14 16 18 21 23 24 24 24 25 23 24 28 32 33 34 43 35 34 31 31 28 27 30 28 31 34 33 33 36 37 39 40 39 39 40 40 39 38
11 12 13 13 14 16 18 21 23 24 24 25 26 25 26 30 33 33 32 29 29 39 43 36 33 33 32 33 34 34 36 37 35 36 38 39 40 41 41 39 39 41 39
12 12 12 13 15 18 21 23 24 23 25 26 26 29 32 32 34 33 30 28 26 30 41 44 45 41 37 35 36 37 38 34 36 40 38 39 39 40 39 40 40 38 40
11 11 12 15 18 21 22 23 24 26 26 26 29 31 32 34 35 33 31 29 30 31 36 49 48 46 45 47 43 38 36 37 37 35 39 45 46 44 43 43 42 43 46
11 12 14 17 20 22 23 24 26 26 27 29 29 31 33 34 35 33 30 30 32 34 35 38 48 51 47 49 45 42 39 33 36 42 42 42 42 42 44 46 46 46 46
11 13 17 19 21 23 25 26 26 27 27 27 29 32 34 34 37 34 32 34 35 33 33 39 46 50 50 44 47 40 39 44 39 38 40 36 36 37 39 39 41 41 40
13 16 18 20 22 23 25 26 27 27 28 29 30 32 33 34 37 33 35 34 33 39 41 42 44 42 44 43 32 45 46 40 44 45 41 36 37 40 39 37 38 39 41
15 18 19 20 22 24 26 27 26 27 29 31 31 31 32 35 31 30 31 37 39 42 43 40 44 45 30 45 39 43 45 48 45 36 35 48 42 40 43 43 42 40 39
16 18 20 22 24 25 26 24 24 28 30 31 33 34 36 34 30 33 36 34 34 39 42 45 33 42 44 40 43 46 45 38 44 41 39 45 41 46 46 45 39 36 37
18 19 21 23 24 26 26 26 26 28 30 32 33 32 34 34 37 37 38 36 38 38 31 40 40 40 41 46 44 39 43 44 45 49 43 48 42 42 43 44 38 37 38
19 21 22 24 25 27 27 29 28 28 30 30 31 31 33 38 36 36 38 43 34 45 42 39 36 40 40 42 44 44 42 44 43 43 35 41 45 46 44 42 39 38 37
19 22 23 25 27 28 28 28 25 29 31 32 32 32 33 34 38 35 37 41 41 44 42 35 35 36 40 35 33 35 39 38 40 43 40 37 44 45 44 44 38 30 22
21 23 24 26 26 27 27 27 23 27 33 35 36 39 35 36 35 33 39 38 42 38 40 37 45 38 32 34 31 30 35 38 39 43 39 35 42 41 31 35 27 35 35
Wind_Direction
260 266 267 267 296 306 299 298 296 295 298 299 297 293 291 290 288 291 291 289 284 281 282 285 284 286 282 286 290 296 296 292 291 292 289 284 280 277 274 270 265 262 260
268 262 256 265 263 276 284 288 294 297 297 292 287 289 291 293 294 291 289 287 286 287 289 286 283 286 281 284 283 282 289 292 290 291 292 289 284 281 276 272 269 267 265
260 257 259 262 267 281 285 293 293 286 285 288 290 292 292 293 290 287 287 289 291 291 291 291 289 292 290 290 289 285 285 284 289 290 291 291 284 283 280 277 273 268 266
244 258 254 272 281 287 285 284 289 291 295 296 298 299 301 301 295 290 287 288 288 288 290 293 292 288 289 292 290 289 289 288 286 285 286 283 286 287 284 281 277 276 273
261 250 255 279 281 289 295 299 303 305 305 304 306 309 311 307 296 295 287 282 292 296 300 298 293 292 291 291 290 288 287 288 286 283 282 282 290 288 288 285 283 284 283
248 244 253 289 307 309 310 311 312 313 314 315 316 317 319 303 282 293 282 292 298 296 302 296 296 296 296 296 294 293 292 288 290 297 297 294 290 290 289 287 284 280 280
184 201 302 319 325 325 325 324 322 321 322 324 327 327 338 317 286 240 307 300 315 312 301 293 299 302 301 299 295 291 288 286 288 297 303 306 304 297 290 286 284 284 278
175 291 335 335 334 332 328 326 328 333 340 343 345 345 336 339 214 304 305 314 315 315 303 298 304 308 308 310 304 299 298 296 297 306 305 302 300 298 293 287 284 280 277
199 339 341 338 335 332 330 332 334 338 342 348 351 358 338 319 322 315 315 316 314 314 314 313 311 312 312 313 307 306 304 301 303 304 302 299 295 291 289 286 283 278 278
332 342 340 336 332 332 334 337 340 340 341 341 342 333 331 318 318 315 308 315 317 315 317 317 316 315 316 312 309 305 306 306 306 301 300 298 295 291 286 283 281 278 276
337 337 335 334 334 335 337 336 335 337 337 336 334 330 326 321 320 307 307 311 313 313 314 314 313 313 315 312 309 309 308 306 304 303 300 296 293 291 288 285 282 278 276
330 334 334 334 334 333 331 332 333 333 332 329 325 322 321 321 317 317 312 310 306 310 309 308 310 312 311 310 307 307 308 303 301 300 298 296 290 289 286 283 280 277 275
330 333 334 331 328 328 328 328 327 326 325 323 323 320 318 313 309 312 314 311 307 305 306 303 304 300 300 302 307 305 303 302 302 301 296 294 292 289 285 280 279 278 275
330 332 331 328 324 323 323 323 323 323 322 321 320 320 317 312 311 312 313 311 310 306 305 303 305 303 301 302 298 298 300 299 298 298 298 296 293 288 284 281 279 276 275
326 325 325 321 320 321 320 321 322 322 321 321 321 319 317 316 314 315 313 310 306 306 306 309 307 305 303 301 301 303 300 298 296 296 296 294 291 287 286 281 279 277 275
322 320 319 317 317 319 321 323 323 323 321 323 323 321 319 320 319 320 318 313 309 306 298 305 307 306 303 299 301 301 297 295 298 297 296 296 292 287 282 280 277 275 277
320 318 316 317 320 321 322 324 324 324 325 324 322 321 323 325 326 323 319 314 312 310 295 303 305 308 306 308 304 300 298 299 294 296 295 294 289 287 286 285 279 280 280
317 317 319 322 321 322 325 326 325 325 324 321 322 322 324 325 326 325 321 317 314 312 299 294 304 306 304 307 305 304 304 295 296 295 295 293 290 285 283 280 280 279 277
318 322 322 322 325 326 327 326 325 324 323 322 322 322 323 325 325 325 323 319 313 305 301 299 297 303 303 308 305 299 304 305 299 296 295 294 292 289 286 283 282 280 277
323 323 324 327 328 326 326 327 326 326 324 322 320 320 321 322 324 322 317 313 307 308 305 299 296 300 300 302 301 310 307 305 303 307 296 291 295 293 286 284 283 280 278
325 327 327 327 328 327 329 328 329 323 321 319 318 318 317 319 314 313 311 311 309 306 306 306 299 297 305 314 310 307 301 303 299 298 301 295 295 292 288 289 286 283 280
328 329 329 329 330 329 329 329 326 322 321 318 316 316 318 322 320 314 313 311 309 309 302 298 308 313 308 307 306 302 297 303 307 306 302 296 296 292 295 296 290 284 281
331 331 331 331 331 331 332 330 328 322 314 314 316 321 323 325 323 325 322 313 309 306 306 312 309 308 304 307 311 309 305 302 299 301 302 298 299 291 294 295 290 284 280
333 333 332 332 331 333 333 330 327 321 321 324 327 327 327 326 327 322 316 314 320 319 317 316 308 306 307 306 304 302 302 302 303 300 298 290 302 297 305 304 300 292 283
332 332 332 332 332 334 332 332 333 328 328 327 328 327 327 324 324 320 317 321 320 316 318 317 310 306 306 306 306 307 306 307 302 302 312 298 305 303 307 308 307 305 293
330 329 329 332 332 331 336 338 334 329 326 329 326 329 328 326 323 324 321 321 315 320 324 317 312 315 322 327 318 314 312 305 302 302 312 303 304 304 299 301 305 299 297